Shreveport, LA

9:38 AM CDT on October 23, 2017 (GMT -0500)
Shreveport Regional

Weather History for KSHV - April, 2013

Change the Weather History Date:

Wednesday, April 17, 2013

  Actual Average Record
Temperature  
Mean Temperature 80 °F 66 °F  
Max Temperature 88 °F 77 °F 91 °F (1987)
Min Temperature 72 °F 54 °F 35 °F (1921)
Degree Days  
Heating Degree Days 0 3  
Month to date heating degree days 74 66  
Since 1 July heating degree days 1994 2199  
Cooling Degree Days 15 3  
Month to date cooling degree days 64 42  
Year to date cooling degree days 89 83  
Growing Degree Days 30 (Base 50)    
Moisture  
Dew Point 68 °F    
Average Humidity 72    
Maximum Humidity 93    
Minimum Humidity 50    
Precipitation  
Precipitation 0.00 in 0.13 in 3.70 in (1991)
Month to date precipitation 2.61 2.34  
Year to date precipitation 13.63 15.43  
Snow  
Snow 0.00 in - - ()
Month to date snowfall 0.0  
Since 1 July snowfall 0.1  
Snow Depth 0.00 in    
Sea Level Pressure  
Sea Level Pressure 29.89 in    
Wind  
Wind Speed 15 mph (SSE)    
Max Wind Speed 25 mph    
Max Gust Speed 33 mph    
Visibility 10 miles    
Events      
T = Trace of Precipitation, MM = Missing Value Source: NWS Daily Summary

Daily Weather History Graph

Daily Weather History Graph

Search for Another Location

Airport or City:

Trip Planner

Search our weather history database for the weather conditions in past years. The results will help you decide how hot, cold, wet, or windy it might be!

Date:

Astronomy

Apr. 17, 2013 Rise Set
Actual Time 6:43 AM CDT 7:46 PM CDT
Civil Twilight 6:18 AM CDT 8:12 PM CDT
Nautical Twilight 5:48 AM CDT 8:42 PM CDT
Astronomical Twilight 5:17 AM CDT 9:13 PM CDT
Moon 12:04 PM CDT (4/17) 1:18 AM CDT (4/17)
Length of Visible Light 13h 54m
Length of Day
13h 03m
Waxing Crescent, 42% of the Moon is Illuminated
Apr 17
Waxing Crescent
Apr 18
First Quarter
Apr 25
Full
May 2
Last Quarter
May 9
New

Hourly Weather History & Observations

Time (CDT) Temp. Heat Index Dew Point Humidity Pressure Visibility Wind Dir Wind Speed Gust Speed Precip Events Conditions
12:14 AM 75.2 °F - 71.6 °F 89% 29.96 in 10.0 mi SSE 9.2 mph - N/A   Overcast
12:56 AM 75.9 °F - 70.0 °F 82% 29.95 in 9.0 mi SSE 11.5 mph - N/A   Overcast
1:56 AM 75.9 °F - 70.0 °F 82% 29.95 in 10.0 mi South 12.7 mph - N/A   Overcast
2:56 AM 75.9 °F - 69.1 °F 79% 29.94 in 10.0 mi SSE 12.7 mph - N/A   Overcast
3:49 AM 75.2 °F - 69.8 °F 83% 29.96 in 10.0 mi South 9.2 mph - N/A   Overcast
3:56 AM 75.0 °F - 69.1 °F 82% 29.95 in 10.0 mi South 5.8 mph - N/A   Overcast
4:56 AM 73.9 °F - 69.1 °F 85% 29.95 in 10.0 mi SE 6.9 mph - N/A   Mostly Cloudy
5:56 AM 73.0 °F - 69.1 °F 87% 29.96 in 9.0 mi SE 5.8 mph - N/A   Mostly Cloudy
6:56 AM 72.0 °F - 69.1 °F 91% 29.97 in 8.0 mi SSE 6.9 mph - N/A   Mostly Cloudy
7:56 AM 73.0 °F - 69.1 °F 87% 29.98 in 8.0 mi SSE 10.4 mph - N/A   Mostly Cloudy
8:56 AM 75.9 °F - 70.0 °F 82% 29.98 in 9.0 mi SSE 12.7 mph - N/A   Scattered Clouds
9:56 AM 79.0 °F - 70.0 °F 74% 29.96 in 10.0 mi SSE 13.8 mph 23.0 mph N/A   Scattered Clouds
10:56 AM 81.0 °F 84.4 °F 70.0 °F 69% 29.95 in 10.0 mi SSE 16.1 mph 24.2 mph N/A   Scattered Clouds
11:56 AM 84.0 °F 87.0 °F 68.0 °F 58% 29.94 in 10.0 mi SSE 20.7 mph 32.2 mph N/A   Mostly Cloudy
12:56 PM 86.0 °F 88.8 °F 66.9 °F 53% 29.90 in 10.0 mi SSE 18.4 mph 29.9 mph N/A   Mostly Cloudy
1:56 PM 87.1 °F 90.6 °F 68.0 °F 53% 29.88 in 10.0 mi SSE 17.3 mph 27.6 mph N/A   Mostly Cloudy
2:56 PM 88.0 °F 90.3 °F 66.0 °F 48% 29.85 in 10.0 mi South 17.3 mph 27.6 mph N/A   Mostly Cloudy
3:56 PM 88.0 °F 90.3 °F 66.0 °F 48% 29.82 in 10.0 mi SSE 21.9 mph 27.6 mph N/A   Mostly Cloudy
4:56 PM 84.9 °F 87.1 °F 66.0 °F 53% 29.80 in 10.0 mi SSE 20.7 mph 29.9 mph N/A   Mostly Cloudy
5:56 PM 84.9 °F 88.2 °F 68.0 °F 57% 29.79 in 10.0 mi South 16.1 mph - N/A   Scattered Clouds
6:56 PM 82.0 °F 84.9 °F 68.0 °F 62% 29.77 in 10.0 mi SSE 18.4 mph 26.5 mph N/A   Scattered Clouds
7:56 PM 81.0 °F 83.3 °F 66.9 °F 62% 29.78 in 10.0 mi South 18.4 mph 29.9 mph N/A   Overcast
8:56 PM 79.0 °F - 66.9 °F 66% 29.78 in 10.0 mi South 16.1 mph 24.2 mph N/A   Scattered Clouds
9:56 PM 78.1 °F - 68.0 °F 71% 29.78 in 10.0 mi SSE 13.8 mph - N/A   Scattered Clouds
10:56 PM 77.0 °F - 68.0 °F 74% 29.78 in 10.0 mi SSE 19.6 mph 26.5 mph N/A   Scattered Clouds
11:12 PM 77.0 °F - 68.0 °F 74% 29.79 in 10.0 mi South 20.7 mph 28.8 mph N/A   Mostly Cloudy
11:56 PM 77.0 °F - 69.1 °F 76% 29.78 in 10.0 mi South 16.1 mph 24.2 mph N/A   Overcast